EN

Hourly Weather Coimbra

Today, 12 June, Saturday

Time Temperature Precipitation Wind Pressure Humidity
00:00 +20°C° 0 mm 2 mps 753 mmHg 67%
01:00 +20°C° 0 mm 2 mps 753 mmHg 69%
02:00 +20°C° 0 mm 1 mps 753 mmHg 70%
03:00 +20°C° 0 mm 1 mps 753 mmHg 70%
04:00 +20°C° 0 mm 2 mps 753 mmHg 71%
05:00 +20°C° 0 mm 2 mps 754 mmHg 71%
06:00 +23°C° 0 mm 2 mps 754 mmHg 62%
07:00 +26°C° 0 mm 2 mps 754 mmHg 52%
08:00 +29°C° 0 mm 3 mps 754 mmHg 43%
09:00 +30°C° 0 mm 2 mps 754 mmHg 39%
10:00 +32°C° 0 mm 2 mps 754 mmHg 34%
11:00 +35°C° 0 mm 2 mps 754 mmHg 30%
12:00 +34°C° 0 mm 3 mps 754 mmHg 32%
13:00 +33°C° 0 mm 3 mps 753 mmHg 35%
14:00 +31°C° 0 mm 3 mps 752 mmHg 38%
15:00 +29°C° 0.3 mm 3 mps 753 mmHg 47%
16:00 +27°C° 0.3 mm 4 mps 753 mmHg 56%
17:00 +25°C° 0.3 mm 4 mps 753 mmHg 65%
18:00 +22°C° 2.6 mm 3 mps 754 mmHg 75%
19:00 +21°C° 2.6 mm 2 mps 755 mmHg 84%
20:00 +19°C° 2.6 mm 2 mps 756 mmHg 94%
21:00 +19°C° 0.2 mm 2 mps 756 mmHg 93%
22:00 +19°C° 0.2 mm 2 mps 755 mmHg 92%
23:00 +19°C° 0.2 mm 2 mps 755 mmHg 92%

Tomorrow, 13 June, Sunday

Time Temperature Precipitation Wind Pressure Humidity
00:00 +19°C° 0.1 mm 2 mps 755 mmHg 91%
01:00 +18°C° 0.1 mm 2 mps 755 mmHg 90%
02:00 +19°C° 0.1 mm 1 mps 755 mmHg 89%
03:00 +19°C° 0 mm 1 mps 755 mmHg 88%
04:00 +20°C° 0 mm 1 mps 756 mmHg 88%
05:00 +20°C° 0 mm 1 mps 756 mmHg 88%
06:00 +22°C° 0 mm 1 mps 756 mmHg 77%
07:00 +24°C° 0 mm 1 mps 757 mmHg 67%
08:00 +27°C° 0 mm 1 mps 757 mmHg 57%
09:00 +28°C° 0 mm 1 mps 757 mmHg 51%
10:00 +30°C° 0 mm 1 mps 756 mmHg 46%
11:00 +31°C° 0 mm 2 mps 756 mmHg 40%
12:00 +30°C° 0.1 mm 2 mps 756 mmHg 43%
13:00 +30°C° 0.1 mm 2 mps 755 mmHg 46%
14:00 +29°C° 0.1 mm 2 mps 755 mmHg 50%
15:00 +28°C° 0 mm 2 mps 755 mmHg 53%
16:00 +28°C° 0 mm 2 mps 755 mmHg 57%
17:00 +27°C° 0 mm 2 mps 755 mmHg 60%
18:00 +25°C° 0 mm 2 mps 756 mmHg 70%
19:00 +23°C° 0 mm 1 mps 756 mmHg 79%
20:00 +21°C° 0 mm 1 mps 757 mmHg 89%
21:00 +20°C° 0 mm 1 mps 757 mmHg 90%
22:00 +20°C° 0 mm 1 mps 757 mmHg 91%
23:00 +17°C° 0 mm 0 mps 756 mmHg 92%

Day after tomorrow, 14 June, Monday

Time Temperature Precipitation Wind Pressure Humidity
00:00 +17°C° 0 mm 0 mps 756 mmHg 92%
01:00 +17°C° 0 mm 0 mps 756 mmHg 91%
02:00 +17°C° 0 mm 0 mps 756 mmHg 91%
03:00 +17°C° 0 mm 0 mps 756 mmHg 90%
04:00 +18°C° 0 mm 0 mps 757 mmHg 88%
05:00 +18°C° 0 mm 0 mps 757 mmHg 87%
06:00 +20°C° 0 mm 0 mps 757 mmHg 77%
07:00 +23°C° 0 mm 0 mps 757 mmHg 67%
08:00 +26°C° 0 mm 0 mps 757 mmHg 56%
09:00 +29°C° 0 mm 1 mps 757 mmHg 51%
10:00 +30°C° 0 mm 2 mps 757 mmHg 46%
11:00 +32°C° 0 mm 2 mps 756 mmHg 41%
12:00 +33°C° 0 mm 3 mps 756 mmHg 42%
13:00 +32°C° 0 mm 4 mps 756 mmHg 44%
14:00 +32°C° 0 mm 4 mps 755 mmHg 45%
15:00 +29°C° 0.1 mm 4 mps 755 mmHg 50%
16:00 +28°C° 0.1 mm 4 mps 755 mmHg 55%
17:00 +26°C° 0.1 mm 3 mps 755 mmHg 60%
18:00 +24°C° 0 mm 3 mps 755 mmHg 69%
19:00 +21°C° 0 mm 2 mps 756 mmHg 78%
20:00 +20°C° 0 mm 1 mps 756 mmHg 87%
21:00 +20°C° 0 mm 1 mps 755 mmHg 87%
22:00 +20°C° 0 mm 1 mps 755 mmHg 87%
23:00 +20°C° 0 mm 1 mps 755 mmHg 87%

15 June, Tuesday

Time Temperature Precipitation Wind Pressure Humidity
00:00 +20°C° 0 mm 1 mps 754 mmHg 86%
01:00 +20°C° 0 mm 1 mps 754 mmHg 85%
02:00 +20°C° 0 mm 1 mps 753 mmHg 84%
03:00 +20°C° 0 mm 1 mps 753 mmHg 82%
04:00 +21°C° 0 mm 1 mps 753 mmHg 79%
05:00 +21°C° 0 mm 1 mps 753 mmHg 76%
06:00 +24°C° 0 mm 1 mps 753 mmHg 66%
07:00 +26°C° 0 mm 1 mps 753 mmHg 57%
08:00 +29°C° 0 mm 1 mps 753 mmHg 47%
09:00 +31°C° 0 mm 1 mps 753 mmHg 43%
10:00 +34°C° 0 mm 2 mps 753 mmHg 38%
11:00 +35°C° 0 mm 2 mps 752 mmHg 34%
12:00 +35°C° 0 mm 3 mps 752 mmHg 37%
13:00 +34°C° 0 mm 3 mps 752 mmHg 40%
14:00 +33°C° 0 mm 4 mps 752 mmHg 43%
15:00 +32°C° 0 mm 4 mps 751 mmHg 47%
16:00 +29°C° 0 mm 3 mps 751 mmHg 51%
17:00 +28°C° 0 mm 3 mps 751 mmHg 55%
18:00 +26°C° 0.1 mm 2 mps 751 mmHg 66%
19:00 +23°C° 0.1 mm 1 mps 752 mmHg 77%
20:00 +21°C° 0.1 mm 1 mps 752 mmHg 88%
21:00 +20°C° 0 mm 1 mps 752 mmHg 89%
22:00 +20°C° 0 mm 1 mps 752 mmHg 89%
23:00 +19°C° 0 mm 1 mps 751 mmHg 90%

16 June, Wednesday

Time Temperature Precipitation Wind Pressure Humidity
00:00 +19°C° 0 mm 1 mps 751 mmHg 91%
01:00 +19°C° 0 mm 1 mps 751 mmHg 92%
02:00 +16°C° 0 mm 0 mps 751 mmHg 93%
03:00 +19°C° 0 mm 1 mps 751 mmHg 92%
04:00 +19°C° 0 mm 1 mps 751 mmHg 91%
05:00 +19°C° 0 mm 1 mps 751 mmHg 90%
06:00 +20°C° 0 mm 2 mps 751 mmHg 81%
07:00 +23°C° 0 mm 2 mps 751 mmHg 71%
08:00 +25°C° 0 mm 2 mps 752 mmHg 61%
09:00 +27°C° 0 mm 3 mps 751 mmHg 55%
10:00 +28°C° 0 mm 3 mps 751 mmHg 50%
11:00 +29°C° 0 mm 4 mps 751 mmHg 44%
12:00 +29°C° 0 mm 4 mps 751 mmHg 46%
13:00 +29°C° 0 mm 4 mps 751 mmHg 47%
14:00 +28°C° 0 mm 4 mps 751 mmHg 49%
15:00 +27°C° 0 mm 4 mps 751 mmHg 54%
16:00 +25°C° 0 mm 4 mps 751 mmHg 60%
17:00 +22°C° 0 mm 3 mps 751 mmHg 65%
18:00 +21°C° 0 mm 2 mps 751 mmHg 74%
19:00 +19°C° 0 mm 2 mps 752 mmHg 82%
20:00 +18°C° 0 mm 1 mps 752 mmHg 90%
21:00 +18°C° 0 mm 1 mps 752 mmHg 90%
22:00 +16°C° 0 mm 1 mps 752 mmHg 91%
23:00 +16°C° 0 mm 1 mps 752 mmHg 91%

17 June, Thursday

Time Temperature Precipitation Wind Pressure Humidity
00:00 +16°C° 0 mm 1 mps 752 mmHg 91%
01:00 +16°C° 0 mm 1 mps 752 mmHg 91%
02:00 +16°C° 0 mm 1 mps 752 mmHg 91%
03:00 +16°C° 0 mm 1 mps 752 mmHg 91%
04:00 +18°C° 0 mm 1 mps 752 mmHg 92%
05:00 +18°C° 0 mm 1 mps 752 mmHg 92%
06:00 +17°C° 0.1 mm 2 mps 752 mmHg 91%
07:00 +18°C° 0.1 mm 2 mps 752 mmHg 89%
08:00 +18°C° 0.1 mm 2 mps 753 mmHg 88%
09:00 +19°C° 0.1 mm 3 mps 753 mmHg 87%
10:00 +19°C° 0.1 mm 3 mps 753 mmHg 86%
11:00 +19°C° 0.1 mm 4 mps 753 mmHg 84%
12:00 +19°C° 0 mm 4 mps 754 mmHg 83%
13:00 +19°C° 0 mm 4 mps 754 mmHg 82%
14:00 +19°C° 0 mm 5 mps 754 mmHg 80%
15:00 +19°C° 0 mm 5 mps 754 mmHg 81%
16:00 +17°C° 0 mm 5 mps 754 mmHg 81%
17:00 +18°C° 0 mm 4 mps 754 mmHg 81%
18:00 +17°C° 0 mm 4 mps 755 mmHg 84%
19:00 +15°C° 0 mm 4 mps 755 mmHg 86%
20:00 +16°C° 0 mm 3 mps 755 mmHg 88%
21:00 +14°C° 0 mm 3 mps 755 mmHg 88%
22:00 +14°C° 0 mm 3 mps 755 mmHg 88%
23:00 +14°C° 0 mm 3 mps 755 mmHg 88%
Show more